VCV62 SVMI-SVLF

Flight info

Callsign VCV62
Flight time 1h 0m
Altitude 34000
Route BUTSA2 PBL UW40 BRM UW8 GEGEN
Aircraft E190/M-SDE3GILORVW/S

Departure

Time 2026-05-05 01:53
Airport Maiquetía Simón Bolívar International Airport (SVMI)

Arrival

Time 2026-05-05 02:53
Airport La Fria Airport (SVLF)
Time Latitude Longitude Altitude Speed Heading
2026-05-05 01:28 10.59833 -67.00077 220 ft 0 kts 179°
2026-05-05 01:43 10.59849 -67.00078 222 ft 4 kts 178°
2026-05-05 01:44 10.59876 -67.00079 221 ft 4 kts 178°
2026-05-05 01:44 10.59898 -67.00078 222 ft 4 kts 205°
2026-05-05 01:44 10.59911 -67.00062 220 ft 4 kts 269°
2026-05-05 01:44 10.59911 -67.00042 220 ft 0 kts 268°
2026-05-05 01:47 10.59910 -67.00050 220 ft 3 kts 268°
2026-05-05 01:47 10.59909 -67.00083 220 ft 7 kts 268°
2026-05-05 01:47 10.59908 -67.00144 221 ft 11 kts 268°
2026-05-05 01:48 10.59909 -67.00225 222 ft 12 kts 279°
2026-05-05 01:48 10.59954 -67.00288 223 ft 12 kts 341°
2026-05-05 01:48 10.60003 -67.00342 224 ft 11 kts 270°
2026-05-05 01:48 10.60000 -67.00424 226 ft 12 kts 268°
2026-05-05 01:49 10.59998 -67.00508 227 ft 12 kts 269°
2026-05-05 01:49 10.59997 -67.00594 229 ft 12 kts 270°
2026-05-05 01:49 10.59993 -67.00681 230 ft 12 kts 267°
2026-05-05 01:49 10.59989 -67.00765 231 ft 12 kts 267°
2026-05-05 01:50 10.59986 -67.00849 233 ft 11 kts 268°
2026-05-05 01:50 10.59984 -67.00929 234 ft 11 kts 268°
2026-05-05 01:50 10.59981 -67.01012 236 ft 12 kts 268°
2026-05-05 01:50 10.59980 -67.01067 237 ft 12 kts 268°
2026-05-05 01:51 10.59977 -67.01152 238 ft 12 kts 268°
2026-05-05 01:51 10.59997 -67.01230 240 ft 12 kts 322°
2026-05-05 01:51 10.60077 -67.01243 240 ft 12 kts 358°
2026-05-05 01:51 10.60172 -67.01246 237 ft 16 kts 358°
2026-05-05 01:52 10.60284 -67.01251 238 ft 16 kts 358°
2026-05-05 01:52 10.60373 -67.01246 240 ft 9 kts 40°
2026-05-05 01:52 10.60384 -67.01160 238 ft 27 kts 87°
2026-05-05 01:52 10.60398 -67.00734 231 ft 92 kts 88°
2026-05-05 01:53 10.60425 -66.99903 223 ft 141 kts 89°
2026-05-05 01:53 10.60469 -66.98788 470 ft 169 kts 88°
2026-05-05 01:53 10.60517 -66.97559 1108 ft 181 kts 89°
2026-05-05 01:53 10.60726 -66.96208 1781 ft 201 kts 77°
2026-05-05 01:54 10.61099 -66.94830 2650 ft 203 kts 77°
2026-05-05 01:54 10.61435 -66.93403 3477 ft 214 kts 78°
2026-05-05 01:54 10.62019 -66.91950 4157 ft 231 kts 59°
2026-05-05 01:54 10.63188 -66.90824 4922 ft 244 kts 32°
2026-05-05 01:55 10.64831 -66.90306 5783 ft 252 kts
2026-05-05 01:55 10.66605 -66.90194 6612 ft 258 kts
2026-05-05 01:55 10.68428 -66.90146 7054 ft 262 kts
2026-05-05 01:55 10.70271 -66.90149 7138 ft 266 kts
2026-05-05 01:56 10.72078 -66.90188 7770 ft 254 kts
2026-05-05 01:56 10.73847 -66.90215 8593 ft 254 kts
2026-05-05 01:56 10.75623 -66.90158 9374 ft 257 kts
2026-05-05 01:56 10.77416 -66.90063 10127 ft 260 kts
2026-05-05 01:57 10.79240 -66.89975 10830 ft 263 kts
2026-05-05 01:57 10.81096 -66.90074 11481 ft 273 kts 351°
2026-05-05 01:57 10.82861 -66.90856 12127 ft 283 kts 328°
2026-05-05 01:57 10.84276 -66.92277 12773 ft 291 kts 307°
2026-05-05 01:58 10.85153 -66.94149 13420 ft 297 kts 286°
2026-05-05 01:58 10.85280 -66.96249 14009 ft 301 kts 259°
2026-05-05 01:58 10.84160 -66.97936 14458 ft 294 kts 210°
2026-05-05 01:58 10.82623 -66.99319 15064 ft 303 kts 232°
2026-05-05 01:59 10.81745 -67.01284 15524 ft 324 kts 256°
2026-05-05 01:59 10.81699 -67.03674 15643 ft 355 kts 282°
2026-05-05 01:59 10.82445 -67.06150 15900 ft 378 kts 290°
2026-05-05 01:59 10.83238 -67.08777 16368 ft 395 kts 284°
2026-05-05 02:00 10.83791 -67.11535 17173 ft 401 kts 281°
2026-05-05 02:00 10.84128 -67.14359 18036 ft 404 kts 274°
2026-05-05 02:00 10.84147 -67.17226 18841 ft 405 kts 268°
2026-05-05 02:00 10.83945 -67.20086 19611 ft 406 kts 264°
2026-05-05 02:01 10.83390 -67.22903 20314 ft 408 kts 258°
2026-05-05 02:01 10.82693 -67.25703 21001 ft 410 kts 257°
2026-05-05 02:01 10.81945 -67.28507 21690 ft 411 kts 257°
2026-05-05 02:01 10.81173 -67.31314 22366 ft 413 kts 257°
2026-05-05 02:02 10.80393 -67.34138 23015 ft 415 kts 257°
2026-05-05 02:02 10.79612 -67.36969 23628 ft 417 kts 258°
2026-05-05 02:02 10.78827 -67.39824 24106 ft 420 kts 257°
2026-05-05 02:02 10.78033 -67.42691 24567 ft 422 kts 257°
2026-05-05 02:03 10.77231 -67.45574 25010 ft 425 kts 257°
2026-05-05 02:03 10.76422 -67.48473 25436 ft 428 kts 257°
2026-05-05 02:03 10.75620 -67.51354 25838 ft 430 kts 257°
2026-05-05 02:03 10.74805 -67.54291 26243 ft 432 kts 257°
2026-05-05 02:04 10.73983 -67.57245 26653 ft 435 kts 257°
2026-05-05 02:04 10.73155 -67.60213 27056 ft 437 kts 256°
2026-05-05 02:04 10.72321 -67.63199 27449 ft 440 kts 256°
2026-05-05 02:04 10.71480 -67.66207 27827 ft 442 kts 256°
2026-05-05 02:05 10.70639 -67.69226 28209 ft 444 kts 256°
2026-05-05 02:05 10.69803 -67.72217 28563 ft 447 kts 256°
2026-05-05 02:05 10.68954 -67.75262 28917 ft 449 kts 256°
2026-05-05 02:05 10.68099 -67.78313 29360 ft 448 kts 256°
2026-05-05 02:06 10.67248 -67.81361 29667 ft 451 kts 256°
2026-05-05 02:06 10.66389 -67.84424 30065 ft 450 kts 256°
2026-05-05 02:06 10.65389 -67.87454 30243 ft 451 kts 245°
2026-05-05 02:06 10.63702 -67.90093 30955 ft 444 kts 232°
2026-05-05 02:07 10.61687 -67.92456 31424 ft 441 kts 230°
2026-05-05 02:07 10.59648 -67.94784 31822 ft 440 kts 230°
2026-05-05 02:07 10.57619 -67.97107 32162 ft 440 kts 230°
2026-05-05 02:07 10.55586 -67.99433 32486 ft 440 kts 230°
2026-05-05 02:08 10.53551 -68.01760 32795 ft 440 kts 230°
2026-05-05 02:08 10.51517 -68.04087 33072 ft 441 kts 230°
2026-05-05 02:08 10.49482 -68.06432 33299 ft 443 kts 232°
2026-05-05 02:08 10.47829 -68.09066 33454 ft 444 kts 248°
2026-05-05 02:09 10.46714 -68.11993 33693 ft 444 kts 252°
2026-05-05 02:09 10.45703 -68.14956 33968 ft 443 kts 252°
2026-05-05 02:09 10.44727 -68.17857 34092 ft 429 kts 252°
2026-05-05 02:09 10.43764 -68.20708 34068 ft 426 kts 252°
2026-05-05 02:10 10.41816 -68.26405 34034 ft 428 kts 252°
2026-05-05 02:10 10.39842 -68.32109 34014 ft 428 kts 252°
2026-05-05 02:11 10.37870 -68.37818 34012 ft 428 kts 252°
2026-05-05 02:11 10.35912 -68.43487 34010 ft 428 kts 252°
2026-05-05 02:12 10.32962 -68.52053 34014 ft 428 kts 252°
2026-05-05 02:13 10.30997 -68.57765 34013 ft 428 kts 252°
2026-05-05 02:13 10.29028 -68.63469 34017 ft 428 kts 252°
2026-05-05 02:14 10.27058 -68.69177 34018 ft 428 kts 252°
2026-05-05 02:14 10.25087 -68.74879 34027 ft 428 kts 252°
2026-05-05 02:15 10.23115 -68.80587 34025 ft 428 kts 252°
2026-05-05 02:15 10.21147 -68.86291 34021 ft 428 kts 252°
2026-05-05 02:16 10.19259 -68.91741 34024 ft 428 kts 252°
2026-05-05 02:16 10.17282 -68.97436 34027 ft 428 kts 252°
2026-05-05 02:17 10.15307 -69.03130 34024 ft 427 kts 252°
2026-05-05 02:17 10.13328 -69.08821 34015 ft 428 kts 251°
2026-05-05 02:18 10.11348 -69.14521 34025 ft 428 kts 251°
2026-05-05 02:18 10.09369 -69.20213 34027 ft 427 kts 251°
2026-05-05 02:19 10.07388 -69.25907 34019 ft 427 kts 251°
2026-05-05 02:19 10.05418 -69.31554 34026 ft 427 kts 251°
2026-05-05 02:20 10.03162 -69.37121 34036 ft 428 kts 244°
2026-05-05 02:20 10.00431 -69.42489 34027 ft 428 kts 244°
2026-05-05 02:21 9.97699 -69.47850 34030 ft 428 kts 244°
2026-05-05 02:21 9.94968 -69.53218 34035 ft 428 kts 244°
2026-05-05 02:22 9.92247 -69.58556 34027 ft 428 kts 243°
2026-05-05 02:22 9.89509 -69.63919 34034 ft 428 kts 243°
2026-05-05 02:23 9.86770 -69.69284 34035 ft 429 kts 243°
2026-05-05 02:23 9.84030 -69.74653 34041 ft 429 kts 243°
2026-05-05 02:24 9.81288 -69.80018 34043 ft 429 kts 243°
2026-05-05 02:24 9.78551 -69.85386 34053 ft 429 kts 243°
2026-05-05 02:25 9.75810 -69.90748 34052 ft 428 kts 243°
2026-05-05 02:25 9.73074 -69.96114 34061 ft 428 kts 243°
2026-05-05 02:26 9.70325 -70.01482 34061 ft 429 kts 243°
2026-05-05 02:26 9.67581 -70.06848 34066 ft 429 kts 243°
2026-05-05 02:27 9.64837 -70.12222 34061 ft 429 kts 243°
2026-05-05 02:27 9.62103 -70.17554 34056 ft 429 kts 243°
2026-05-05 02:28 9.59342 -70.22926 34054 ft 429 kts 243°
2026-05-05 02:28 9.56589 -70.28294 34054 ft 429 kts 243°
2026-05-05 02:29 9.53834 -70.33664 34048 ft 429 kts 243°
2026-05-05 02:29 9.51081 -70.39036 34042 ft 429 kts 243°
2026-05-05 02:30 9.48326 -70.44411 34032 ft 430 kts 243°
2026-05-05 02:30 9.45567 -70.49776 34029 ft 430 kts 243°
2026-05-05 02:31 9.42800 -70.55150 34016 ft 430 kts 240°
2026-05-05 02:31 9.39476 -70.60181 34021 ft 431 kts 235°
2026-05-05 02:32 9.36085 -70.65125 34012 ft 430 kts 235°
2026-05-05 02:32 9.32654 -70.70100 34018 ft 431 kts 235°
2026-05-05 02:33 9.29233 -70.75090 34011 ft 432 kts 235°
2026-05-05 02:33 9.25792 -70.80079 34022 ft 432 kts 235°
2026-05-05 02:33 9.24071 -70.82582 33856 ft 436 kts 235°
2026-05-05 02:34 9.22332 -70.85111 33530 ft 435 kts 235°
2026-05-05 02:34 9.20599 -70.87630 33070 ft 438 kts 235°
2026-05-05 02:34 9.18848 -70.90174 32467 ft 440 kts 235°
2026-05-05 02:34 9.17119 -70.92687 31859 ft 440 kts 235°
2026-05-05 02:35 9.15368 -70.95231 31283 ft 440 kts 235°
2026-05-05 02:35 9.13619 -70.97775 30678 ft 440 kts 235°
2026-05-05 02:35 9.11869 -71.00316 30113 ft 440 kts 235°
2026-05-05 02:35 9.10120 -71.02856 29504 ft 439 kts 235°
2026-05-05 02:36 9.08371 -71.05397 28929 ft 442 kts 235°
2026-05-05 02:36 9.06609 -71.07959 28341 ft 443 kts 236°
2026-05-05 02:36 9.04854 -71.10520 27758 ft 441 kts 236°
2026-05-05 02:36 9.03108 -71.13052 27164 ft 437 kts 236°
2026-05-05 02:37 9.01375 -71.15564 26593 ft 433 kts 236°
2026-05-05 02:37 8.99657 -71.18051 26015 ft 429 kts 236°
2026-05-05 02:37 8.97953 -71.20514 25452 ft 426 kts 236°
2026-05-05 02:37 8.96286 -71.22933 24893 ft 423 kts 236°
2026-05-05 02:38 8.94605 -71.25358 24327 ft 420 kts 236°
2026-05-05 02:38 8.92936 -71.27770 23770 ft 417 kts 236°
2026-05-05 02:38 8.91285 -71.30169 23170 ft 414 kts 236°
2026-05-05 02:38 8.89653 -71.32538 22664 ft 408 kts 236°
2026-05-05 02:39 8.88030 -71.34893 22109 ft 406 kts 235°
2026-05-05 02:39 8.86416 -71.37236 21569 ft 405 kts 235°
2026-05-05 02:39 8.85371 -71.38795 21072 ft 407 kts 238°
2026-05-05 02:39 8.83935 -71.41253 20564 ft 402 kts 239°
2026-05-05 02:40 8.82045 -71.44492 19834 ft 398 kts 238°
2026-05-05 02:40 8.81107 -71.46082 19481 ft 396 kts 238°
2026-05-05 02:40 8.79698 -71.48467 18955 ft 393 kts 238°
2026-05-05 02:40 8.78300 -71.50832 18443 ft 391 kts 237°
2026-05-05 02:41 8.76901 -71.53183 17892 ft 388 kts 237°
2026-05-05 02:41 8.75519 -71.55503 17411 ft 383 kts 237°
2026-05-05 02:41 8.74148 -71.57801 16909 ft 380 kts 237°
2026-05-05 02:41 8.72798 -71.60082 16407 ft 376 kts 237°
2026-05-05 02:42 8.71457 -71.62340 15894 ft 373 kts 237°
2026-05-05 02:42 8.70127 -71.64581 15408 ft 371 kts 237°
2026-05-05 02:42 8.68801 -71.66803 14915 ft 368 kts 236°
2026-05-05 02:42 8.67488 -71.69007 14427 ft 362 kts 236°
2026-05-05 02:43 8.66199 -71.71175 13953 ft 357 kts 236°
2026-05-05 02:43 8.64931 -71.73310 13458 ft 352 kts 236°
2026-05-05 02:43 8.63680 -71.75407 13032 ft 344 kts 236°
2026-05-05 02:43 8.62455 -71.77461 12577 ft 339 kts 236°
2026-05-05 02:44 8.61238 -71.79483 12144 ft 334 kts 236°
2026-05-05 02:44 8.60046 -71.81473 11701 ft 329 kts 236°
2026-05-05 02:44 8.58859 -71.83435 11258 ft 325 kts 236°
2026-05-05 02:44 8.57695 -71.85375 10845 ft 321 kts 237°
2026-05-05 02:45 8.56557 -71.87272 10436 ft 318 kts 237°
2026-05-05 02:45 8.55406 -71.89166 10013 ft 315 kts 237°
2026-05-05 02:45 8.54273 -71.91057 9573 ft 313 kts 237°
2026-05-05 02:45 8.53159 -71.92925 9205 ft 308 kts 237°
2026-05-05 02:46 8.52052 -71.94769 8781 ft 306 kts 237°
2026-05-05 02:46 8.50934 -71.96587 8384 ft 303 kts 237°
2026-05-05 02:46 8.49809 -71.98386 7976 ft 302 kts 236°
2026-05-05 02:46 8.48648 -72.00137 7588 ft 298 kts 233°
2026-05-05 02:47 8.47273 -72.01673 7176 ft 294 kts 212°
2026-05-05 02:47 8.45362 -72.02223 6909 ft 283 kts 192°
2026-05-05 02:47 8.43614 -72.03045 6621 ft 279 kts 221°
2026-05-05 02:47 8.42607 -72.04680 6304 ft 277 kts 256°
2026-05-05 02:48 8.42523 -72.06608 5981 ft 275 kts 274°
2026-05-05 02:48 8.42587 -72.08527 5634 ft 272 kts 267°
2026-05-05 02:48 8.42172 -72.10366 5331 ft 268 kts 246°
2026-05-05 02:48 8.41377 -72.12059 4979 ft 266 kts 243°
2026-05-05 02:49 8.40546 -72.13729 4607 ft 266 kts 242°
2026-05-05 02:49 8.39685 -72.15372 4265 ft 264 kts 240°
2026-05-05 02:49 8.38791 -72.16990 3912 ft 263 kts 240°
2026-05-05 02:49 8.37897 -72.18568 3566 ft 262 kts 240°
2026-05-05 02:50 8.36984 -72.20149 3215 ft 256 kts 239°
2026-05-05 02:50 8.36107 -72.21662 2851 ft 244 kts 239°
2026-05-05 02:50 8.35264 -72.23099 2533 ft 233 kts 239°
2026-05-05 02:50 8.34445 -72.24484 2240 ft 226 kts 239°
2026-05-05 02:51 8.33640 -72.25835 1973 ft 224 kts 237°
2026-05-05 02:51 8.32555 -72.26912 1888 ft 215 kts 208°
2026-05-05 02:51 8.31165 -72.27217 1946 ft 203 kts 178°
2026-05-05 02:51 8.29783 -72.27103 1673 ft 187 kts 177°
2026-05-05 02:52 8.28575 -72.27080 1321 ft 160 kts 179°
2026-05-05 02:52 8.27503 -72.27099 918 ft 148 kts 180°
2026-05-05 02:52 8.26534 -72.27092 741 ft 133 kts 179°
2026-05-05 02:52 8.25605 -72.27096 568 ft 137 kts 179°
2026-05-05 02:53 8.24646 -72.27097 328 ft 134 kts 180°
2026-05-05 02:53 8.23823 -72.27094 309 ft 102 kts 179°
2026-05-05 02:53 8.23266 -72.27096 323 ft 56 kts 179°
2026-05-05 02:53 8.23053 -72.27087 326 ft 22 kts 156°
2026-05-05 02:54 8.23055 -72.26963 327 ft 21 kts 37°
2026-05-05 02:54 8.23208 -72.26950 325 ft 24 kts 359°
2026-05-05 02:54 8.23368 -72.26951 322 ft 19 kts 359°
2026-05-05 02:54 8.23469 -72.26951 319 ft 13 kts
2026-05-05 02:55 8.23568 -72.26944 314 ft 15 kts 18°
2026-05-05 02:55 8.23610 -72.26854 316 ft 13 kts 86°
2026-05-05 02:55 8.23617 -72.26812 314 ft 3 kts 46°
2026-05-05 02:55 8.23644 -72.26806 314 ft 4 kts
2026-05-05 02:56 8.23656 -72.26805 313 ft 2 kts
2026-05-05 02:56 8.23658 -72.26805 314 ft 0 kts